Regional Weather Roundup
Issued by NWS

Home | Current Version | Previous Version | Graphics & Text | Print | Product List | Glossary On
Versions: 1 2 3 4 5 6 7 8 9 10 11 12 13 14 15 16 17 18 19 20 21 22 23 24 25 26 27 28 29 30 31 32 33 34 35 36 37 38 39 40 41 42 43 44 45 46 47 48 49 50
000
ASUS43 KMKX 271500
RWRWI

WISCONSIN REGIONAL WEATHER ROUNDUP
NATIONAL WEATHER SERVICE MILWAUKEE/SULLIVAN WI
1000 AM CDT FRI MAY 27 2016

NOTE: "FAIR" INDICATES FEW OR NO CLOUDS BELOW 12,000 FEET WITH NO
SIGNIFICANT WEATHER AND/OR OBSTRUCTIONS TO VISIBILITY.

WIZ001-002-006>008-014>016-023>028-271600-
NORTHWEST WISCONSIN

CITY           SKY/WX    TMP DP  RH WIND       PRES   REMARKS
SUPERIOR ARPT  CLOUDY    46  46 100 NE5       29.90R
ASHLAND        CLOUDY    53  53 100 CALM      29.91R
HAYWARD        CLOUDY    64  55  72 CALM      29.89S
SIREN          RAIN      63  59  86 SE3       29.87R
CUMBERLAND     DRIZZLE   61  57  88 N5        29.88F
RICE LAKE      CLOUDY    64  58  81 CALM      29.89F
CHETEK         CLOUDY    64  59  85 NE3       29.87F
LADYSMITH      CLOUDY    62  59  89 CALM      29.90F
EAU CLAIRE     NOT AVBL
MENOMONIE      CLOUDY    64  63  96 CALM      29.86F
NEW RICHMOND   RAIN      63  60  91 SE5       29.86S
OSCEOLA        CLOUDY    64  59  85 SE10      29.87S
$$

WIZ003>005-009-010-017-018-271600-
NORTH CENTRAL WISCONSIN

CITY           SKY/WX    TMP DP  RH WIND       PRES   REMARKS
MANITOWISH WTR NOT AVBL
ARBOR VITAE    CLOUDY    69  59  69 SE3       29.92R
WOODRUFF       CLOUDY    69  59  69 SE3       29.92R
RHINELANDER    CLOUDY    65  59  81 NE3       29.92S
EAGLE RIVER      N/A     69  55  61 CALM      29.92R
LAND O LAKES   CLOUDY    70  56  60 SE3       29.94R
PHILLIPS       CLOUDY    64  60  88 N3        29.90F
TOMAHAWK       CLOUDY    63  60  89 CALM      29.92R
MEDFORD        CLOUDY    62  60  91 NE3       29.87F
MERRILL        CLOUDY    63  62  96 NE3       29.88F
$$

WIZ029-030-035-036-043>047-271600-
CENTRAL WISCONSIN

CITY           SKY/WX    TMP DP  RH WIND       PRES   REMARKS
WAUSAU         CLOUDY    68  59  73 E3        29.85F
MOSINEE        CLOUDY    64  63  94 VRB6      29.88F
MARSHFIELD     CLOUDY    66  59  78 E5        29.85F
STEVENS POINT  CLOUDY    65  60  84 SW5       29.89S
WAUPACA        CLOUDY    73  63  71 CALM      29.87S
WAUTOMA        LGT RAIN  65  63  93 W3        29.89R
WISC RAPIDS    LGT RAIN  66  60  81 E5        29.88R
CAMP DOUGLAS   NOT AVBL
$$

WIZ011>013-019>022-031-037>040-048>050-271600-
NORTHEAST WISCONSIN

CITY           SKY/WX    TMP DP  RH WIND       PRES   REMARKS
ANTIGO         CLOUDY    69  59  71 CALM      29.91S
SHAWANO        CLOUDY    71  63  74 NE3       29.88F
OCONTO         CLOUDY    66  66  99 E5        29.88S
STURGEON BAY   NOT AVBL
GREEN BAY      CLOUDY    75  65  70 NE9       29.86F
MANITOWOC      NOT AVBL
APPLETON       CLOUDY    73  57  56 E7        29.85S
CLINTONVILLE   CLOUDY    72  61  68 NE5       29.86F
OSHKOSH        CLOUDY    73  62  68 E6        29.86R
$$

WIZ032>034-041-042-053>061-271600-
SOUTHWEST WISCONSIN

CITY           SKY/WX    TMP DP  RH WIND       PRES   REMARKS
LA CROSSE      CLOUDY    68  63  84 NW6       29.81F
SPARTA         CLOUDY    65  63  92 CALM      29.84S
VIROQUA        CLOUDY    66  62  89 E14       29.83F
BOSCOBEL       CLOUDY    73  63  70 S7        29.83F
PRAIRIE DU CHI MOSUNNY   70  66  89 E12       29.81F
PLATTEVILLE    CLOUDY    69  64  83 S13G21    29.86R
$$

WIZ056-057-062-063-064-067-068-271600-
SOUTH CENTRAL WISCONSIN

CITY           SKY/WX    TMP DP  RH WIND       PRES   REMARKS
REEDSBURG      SUNNY     71  65  83 E6        29.86R
BARABOO/DELLS  PTSUNNY   69  62  79 E6        29.87R
LONE ROCK      NOT AVBL
MINERAL POINT  CLOUDY    70  63  78 S14G21    29.88R
MADISON        PTSUNNY   74  60  61 S13       29.86R
MIDDLETON      MOSUNNY   76  59  55 S12G21    29.87S
WATERTOWN      CLOUDY    72  68  88 S6        29.86R
MONROE         CLOUDY    70  59  68 S13       29.88S
JANESVILLE     CLOUDY    73  64  73 S5        29.87
$$

WIZ051-052-058>065-066-070>072-271600-
SOUTHEAST WISCONSIN

CITY           SKY/WX    TMP DP  RH WIND       PRES   REMARKS
MILWAUKEE      CLOUDY    75  68  78 S7        29.88S
WAUKESHA       PTSUNNY   70  66  88 S5        29.90R FOG
MILWAUKEE/TIMM MOSUNNY   73  64  73 SE5       29.88S
RACINE         CLOUDY    72  64  76 SE7       29.90S
BURLINGTON     CLOUDY    71  67  88 S5        29.89S
KENOSHA        LGT RAIN  74  68  81 SW9       29.89S
FOND DU LAC    CLOUDY    74  64  71 S3        29.86F
SHEBOYGAN      CLOUDY    67  58  72 NE3       29.88F
WEST BEND      CLOUDY    72  64  78 SW7       29.87S
JUNEAU         CLOUDY    70  65  85 SE5       29.87S
$$

LSZ147-162-271600-
LAKE SUPERIOR

STATION/POSITION TIME  TEMP    WIND        PRES    WAVE
                       AIR SEA DIR/SP/G            HT/PER
                 (UTC) (F)     (DEG/KT/KT) (MB)    (FT/S)
W MID LAKE BUOY  1350   39 38   10/  6/  6 1013.3R   1
DEVILS ISLAND    1400   44      30/  7/  8 1013.1R
SAXON HARBOR     1440   49     200/  2/  3 1012.5R
$$

LMZ867-665-643>646-271600-
LAKE MICHIGAN

STATION/POSITION TIME  TEMP    WIND        PRES    WAVE
                       AIR SEA DIR/SP/G            HT/PER
                 (UTC) (F)     (DEG/KT/KT) (MB)    (FT/S)
CHAMBERS ISLAND  1440   59     350/  3/  4 1012.9R
N MID LAKE BUOY  1350   47 46   30/  6/  6 1012.1F   1
NORTHPORT PIER   1420   53     130/  9/ 10 1012.9S
SISTER BAY       1305             CALM       N/A
ALGOMA LAKESHORE 1417             CALM       N/A
KEWAUNEE LAKESHO 1400   54      70/  1/  3 1011.7R
SHEBOYGAN LAKESH 1400   52      CALM  /  1 1012.4R
PORT WASHINGTON  1400   57     110/  3/  4 1012.9R
S MID LAKE BUOY  1350   54 50  150/ 10/ 10 1012.2R   1
KENOSHA   LAKESH 1400   59     180/ 11/ 16 1012.2
$$

TC  - TEMPERATURE IN CELSIUS
VSB - VISIBILITY IN STATUTE MILES
WCI - WIND CHILL INDEX
HX  - HEAT INDEX




USA.gov is the U.S. government's official web portal to all federal, state and local government web resources and services.